Home > Time Zones > World Clock > Weather > U.S.A. > Gary > Past weeks

Flag for U.S.A. Weather past 2 weeks in Gary, Indiana, U.S.A.

Now
56 °F

Sunny.


Feels Like: 54 °F
Forecast: 36 / 56 °F
Wind: 9 mph from Northeast

Location: Lansing Municipal Airport

Current Time: Apr 28, 2015 at 1:24:13 PM

Latest Report: Apr 28, 2015 at 12:55 PM


Visibility: 10 mi

Pressure: 30.11 "Hg

Humidity: 49%

Dew point: 37 °F

Location of GaryLocation

Historic Weather in Gary — Graph

°F

Gary temperature yesterday

Maximum temperature yesterday: 51 °F (at 1:55 PM)
Minimum temperature yesterday: 39 °F (at 11:55 PM)
Average temperature yesterday: 45 °F

Past Weeks' High & Low Weather Summary

 TemperatureHumidityPressure
High77 °F (Apr 17, 3:35 PM)94% (Apr 17, 7:15 AM)30.29 "Hg (Apr 17, 7:15 AM)
Low28 °F (Apr 24, 6:35 AM)15% (Apr 14, 2:55 PM)29.26 "Hg (Apr 20, 5:35 AM)
Average49 °F57%29.95 "Hg
* Reported Apr 13 12:15 PM — Apr 28 12:15 PM, Gary, Weather by CustomWeather, © 2015

Note: Actual official high and low records may vary slightly from our data, if they occured in-between our weather recording intervals... More about our weather records

Advertising

Gary weather history for previous 24 hours

 ConditionsComfort  
Time TempWeatherWind HumidityBarometerVisibility
12:15 PM
Tue, Apr 28
56 °FSunny.8 mph53%30.12 "Hg10 mi
11:55 AM57 °FSunny.8 mph48%30.13 "Hg10 mi
11:15 AM55 °FSunny.No wind47%30.14 "Hg10 mi
10:55 AM54 °FSunny.5 mph49%30.14 "Hg10 mi
10:15 AM53 °FSunny.6 mph51%30.16 "Hg10 mi
9:55 AM52 °FSunny.3 mph53%30.16 "Hg10 mi
9:15 AM49 °FSunny.No wind58%30.17 "Hg10 mi
8:55 AM47 °FSunny.No wind64%30.17 "Hg10 mi
8:35 AM46 °FSunny.No wind67%30.17 "Hg10 mi
8:15 AM45 °FSunny.No wind69%30.17 "Hg10 mi
7:55 AM43 °FSunny.No wind76%30.17 "Hg10 mi
7:35 AM40 °FSunny.No wind86%30.18 "Hg10 mi
7:15 AM36 °FSunny.No wind91%30.17 "Hg10 mi
6:55 AM35 °FSunny.No wind91%30.17 "Hg10 mi
6:15 AM33 °FSunny.No wind93%30.17 "Hg7 mi
5:55 AM33 °FSunny.No wind92%30.16 "Hg10 mi
5:35 AM33 °FClear.No wind92%30.16 "Hg10 mi
5:15 AM35 °FClear.No wind90%30.15 "Hg10 mi
4:55 AM34 °FClear.No wind91%30.15 "Hg10 mi
4:35 AM35 °FClear.No wind89%30.15 "Hg10 mi
4:15 AM34 °FClear.3 mph91%30.14 "Hg10 mi
3:55 AM35 °FClear.No wind88%30.14 "Hg10 mi
3:35 AM35 °FClear.No wind89%30.14 "Hg10 mi
3:15 AM36 °FClear.No wind87%30.14 "Hg10 mi
2:55 AM36 °FClear.No wind88%30.14 "Hg10 mi
2:35 AM36 °FClear.No wind88%30.14 "Hg10 mi
2:15 AM36 °FClear.No wind87%30.13 "Hg10 mi
1:55 AM36 °FClear.No wind88%30.13 "Hg10 mi
1:35 AM36 °FClear.No wind90%30.13 "Hg10 mi
1:15 AM36 °FClear.No wind85%30.13 "Hg10 mi
12:55 AM37 °FClear.No wind83%30.12 "Hg10 mi
12:35 AM38 °FClear.No wind82%30.12 "Hg10 mi
12:15 AM37 °FClear.No wind84%30.11 "Hg10 mi
11:55 PM
Mon, Apr 27
39 °FClear.No wind77%30.11 "Hg10 mi
11:35 PM40 °FClear.No wind78%30.11 "Hg10 mi
11:15 PM40 °FClear.No wind77%30.12 "Hg10 mi
10:35 PM40 °FClear.No wind75%30.13 "Hg10 mi
10:15 PM41 °FClear.3 mph74%30.12 "Hg10 mi
9:55 PM41 °FClear.No wind72%30.13 "Hg10 mi
9:35 PM41 °FClear.No wind72%30.13 "Hg10 mi
9:15 PM41 °FClear.3 mph72%30.13 "Hg10 mi
8:55 PM41 °FClear.5 mph70%30.12 "Hg10 mi
8:35 PM42 °FClear.5 mph69%30.12 "Hg10 mi
8:15 PM43 °FClear.7 mph66%30.12 "Hg10 mi
7:55 PM43 °FClear.6 mph65%30.12 "Hg10 mi
7:35 PM45 °FSunny.6 mph61%30.12 "Hg10 mi
7:15 PM46 °FSunny.8 mph58%30.11 "Hg10 mi
6:55 PM47 °FSunny.10 mph56%30.12 "Hg10 mi
6:35 PM47 °FSunny.9 mph56%30.12 "Hg10 mi
6:15 PM47 °FSunny.15 mph54%30.12 "Hg10 mi
5:55 PM47 °FSunny.13 mph55%30.12 "Hg10 mi
5:35 PM48 °FSunny.14 mph53%30.13 "Hg10 mi
5:15 PM48 °FSunny.14 mph53%30.13 "Hg10 mi
4:55 PM49 °FSunny.16 mph52%30.13 "Hg10 mi
4:15 PM51 °FSunny.13 mph50%30.13 "Hg10 mi
3:55 PM51 °FSunny.12 mph50%30.13 "Hg10 mi
3:15 PM51 °FSunny.14 mph51%30.13 "Hg10 mi
2:55 PM50 °FSunny.16 mph51%30.13 "Hg10 mi
2:35 PM50 °FSunny.14 mph51%30.13 "Hg10 mi
2:15 PM51 °FSunny.16 mph51%30.13 "Hg10 mi
1:55 PM51 °FSunny.12 mph51%30.12 "Hg10 mi
1:35 PM50 °FSunny.16 mph51%30.13 "Hg10 mi
1:15 PM50 °FSunny.17 mph49%30.12 "Hg10 mi
Weather by CustomWeather, © 2015

See weather overviewHow to use our weather pages